Temperature
17 17 17 17 17 17 17 17 16 16 16 16 16 16 16 16 16 16 16 16 15 15 15 15 15 15 15 15 15 15 15 15 15 15 15 15 15 15
17 17 17 17 17 17 17 16 16 16 16 16 16 16 16 16 16 15 15 15 15 15 15 15 15 15 15 15 15 15 15 15 15 15 15 15 15 15
17 17 17 16 16 16 16 16 16 16 16 15 15 15 15 15 15 15 15 15 15 15 15 15 15 15 15 15 15 14 14 14 14 14 14 14 14 14
16 16 16 16 16 16 16 16 16 16 15 15 15 15 15 15 15 15 14 14 14 15 15 15 15 15 14 14 14 14 14 14 14 14 14 14 14 14
16 16 16 16 16 15 16 15 15 15 15 15 15 15 15 14 14 14 14 14 14 14 14 14 14 14 14 14 14 14 14 14 14 14 14 14 14 14
16 16 16 15 15 15 15 15 15 15 15 14 14 14 14 14 14 14 14 14 14 14 14 14 14 14 14 14 14 14 14 14 14 13 13 13 13 13
16 15 15 15 15 15 15 15 14 14 14 14 14 14 14 13 13 13 13 13 13 13 13 13 13 13 13 13 13 13 13 13 13 13 13 13 13 13
15 15 15 15 15 15 14 14 14 14 14 14 13 13 13 13 13 13 13 13 13 13 13 13 13 13 13 13 13 13 13 13 13 13 13 13 13 13
15 15 15 15 14 14 14 14 14 14 13 13 13 13 13 13 13 13 12 12 12 12 12 12 12 12 12 12 12 12 12 12 12 12 12 12 13 13
14 14 14 14 14 14 14 14 14 13 13 13 13 13 13 12 12 12 12 12 12 12 12 12 12 12 12 12 12 12 12 12 12 12 12 12 12 12
14 14 14 14 14 13 13 13 13 13 13 13 13 12 12 12 12 12 12 12 12 12 11 11 11 11 11 11 11 11 12 12 12 12 12 12 12 12
14 14 13 13 13 13 13 13 13 13 13 13 12 12 12 12 12 12 12 11 11 11 11 11 11 11 11 11 11 11 11 11 11 11 11 11 11 11
14 14 13 13 13 13 13 13 13 13 12 12 12 12 12 12 12 11 11 11 11 11 11 10 10 10 10 10 10 11 11 11 11 11 11 11 11 11
13 13 13 13 12 12 12 12 12 12 12 12 12 12 11 11 11 11 11 11 11 10 10 10 10 10 10 10 10 10 10 10 10 10 10 11 11 11
13 13 12 12 12 12 12 12 12 12 11 11 11 11 11 11 11 11 11 11 10 10 10 10 10 10 10 10 10 10 10 10 10 10 10 10 10 10
12 12 12 12 12 12 11 11 11 11 11 11 11 11 11 11 10 10 10 10 10 10 10 10 10 10 10 9 9 9 9 9 10 10 10 10 10 10
12 12 12 11 11 11 11 11 11 11 11 10 10 10 10 10 10 10 10 10 10 10 10 10 10 9 9 9 9 9 9 9 9 9 9 10 10 10
11 11 11 11 11 11 11 10 10 10 10 10 10 10 10 10 10 10 10 9 9 9 9 9 9 9 9 9 9 9 9 9 9 9 9 9 9 9
11 11 11 11 10 10 10 10 10 10 9 9 9 9 9 9 9 9 9 9 9 9 9 9 8 8 8 8 9 9 8 8 9 9 9 9 9 9
11 11 10 10 10 10 10 10 9 9 9 9 9 9 9 9 9 8 8 8 8 8 8 8 8 8 8 8 8 8 8 8 8 8 8 8 9 9
11 10 10 10 10 10 10 9 9 9 9 8 8 8 8 8 8 8 8 8 8 8 8 8 8 8 8 8 8 8 8 8 8 8 8 8 8 8
10 10 10 10 9 9 9 9 9 8 8 8 8 8 8 8 8 8 8 8 8 8 8 8 7 7 7 7 7 7 7 8 8 8 8 8 8 8
10 10 10 9 9 9 9 8 8 8 8 8 8 8 8 8 8 8 7 7 7 7 7 7 7 7 7 7 7 7 7 7 7 7 8 8 8 8
Wind_Speed
1 1 1 2 1 1 2 3 3 2 2 3 2 2 2 3 4 3 3 4 5 6 7 7 8 8 7 8 8 7 8 7 7 8 8 8 8 9
1 1 1 2 2 1 1 2 3 4 3 3 3 3 2 2 3 3 4 5 6 6 6 7 8 7 7 7 7 7 7 7 7 7 6 6 6 6
2 1 2 2 2 2 1 1 1 2 3 3 2 2 1 2 3 3 3 4 4 6 6 6 6 7 7 8 7 7 7 6 6 6 5 5 4 5
2 2 3 2 2 2 1 1 1 1 2 2 2 2 2 2 2 2 3 3 3 5 6 6 6 7 7 7 7 7 7 6 6 5 5 4 4 4
2 2 3 2 2 2 2 1 1 1 1 2 2 2 2 2 2 2 2 2 3 4 4 5 6 6 6 6 6 7 7 6 5 5 4 4 4 5
2 2 2 2 3 2 2 1 1 1 1 1 2 2 2 2 1 2 3 3 3 3 3 3 4 4 5 5 5 5 6 5 5 4 4 4 4 4
2 2 2 2 2 1 1 2 1 1 1 1 1 2 2 1 2 2 2 3 3 2 2 2 2 2 4 4 4 4 4 5 5 4 4 4 4 4
2 3 3 3 3 2 2 1 1 2 2 2 2 2 3 2 1 1 1 1 2 2 1 2 1 2 3 2 3 4 4 4 4 4 4 4 4 4
2 2 2 3 2 2 3 3 3 3 3 3 3 3 3 3 2 2 2 2 3 3 0 2 2 2 3 3 4 3 3 4 4 5 4 4 4 3
2 2 2 2 2 1 2 2 3 3 3 2 3 4 3 3 3 4 4 2 2 2 1 1 2 2 3 3 4 4 4 4 4 5 4 4 4 3
2 2 2 2 3 2 1 2 4 4 4 4 3 3 2 2 1 1 1 1 1 2 1 1 1 2 2 2 3 4 5 5 5 4 4 4 4 3
3 3 3 3 4 3 2 2 3 4 3 3 3 3 2 2 1 3 3 2 1 2 2 1 1 1 2 2 2 3 3 4 4 4 4 4 3 1
2 3 4 5 4 3 3 4 5 4 2 2 2 2 2 2 2 1 2 3 3 3 3 1 1 0 1 2 3 2 2 2 2 2 3 3 3 3
2 3 3 5 4 3 3 3 3 1 1 1 1 2 2 2 2 2 2 2 3 4 4 3 2 2 1 1 2 2 2 2 2 1 2 3 3 4
2 3 4 5 4 3 4 3 1 0 0 1 2 3 3 3 2 1 1 1 2 3 3 2 2 2 2 2 2 2 2 2 1 1 2 2 2 2
2 4 4 4 3 3 3 2 1 1 1 2 2 2 2 2 2 1 1 0 1 2 3 3 3 3 2 3 2 2 2 2 2 3 2 3 3 2
1 2 2 2 3 3 2 2 1 1 1 1 1 1 2 2 2 1 1 0 0 1 2 2 2 1 3 3 2 3 3 2 3 3 2 3 3 3
2 0 1 1 1 2 2 2 2 2 2 1 1 1 1 2 2 1 0 0 1 1 1 1 2 3 3 3 4 3 2 2 3 3 2 2 4 3
2 1 2 2 2 2 2 2 2 3 2 1 1 2 2 1 1 1 1 1 1 1 2 1 0 1 1 3 4 2 2 2 2 2 2 3 4 4
2 3 3 3 3 3 2 2 2 2 1 1 2 2 1 1 1 1 1 1 1 1 2 1 1 2 3 3 3 3 3 2 2 2 3 2 2 3
3 3 3 3 3 2 2 2 2 2 2 2 2 2 2 2 2 2 2 3 2 1 2 3 4 4 1 0 1 3 3 4 3 3 2 2 2 1
3 3 2 2 2 2 2 1 1 2 2 2 2 3 3 3 3 3 3 2 2 3 3 3 2 1 1 0 2 3 4 4 4 3 3 3 3 3
2 2 2 2 2 1 1 2 2 2 2 2 2 2 2 2 2 3 3 3 3 3 2 2 2 1 1 1 2 2 3 3 3 3 4 5 4 5
Wind_Direction
295 298 292 281 272 243 200 178 175 224 275 277 280 276 262 244 252 251 252 265 258 251 246 250 253 252 251 251 251 253 258 262 264 265 265 261 255 250
320 333 312 293 302 291 233 208 184 184 226 256 258 273 285 289 285 266 257 266 258 254 246 249 246 244 248 251 253 253 253 257 262 265 268 261 254 251
319 305 290 283 299 295 275 223 198 175 209 267 274 292 303 299 313 303 285 276 272 260 257 254 247 247 251 253 253 252 251 255 259 262 264 261 250 255
296 307 303 308 306 293 279 258 243 212 190 248 290 304 287 281 293 299 304 296 286 279 274 268 261 255 255 252 252 248 247 251 256 256 258 258 251 248
266 270 283 291 294 298 290 262 250 259 188 210 274 289 286 294 315 313 309 301 296 293 288 280 275 270 264 258 254 247 246 246 249 253 255 258 258 249
277 271 280 269 259 266 275 261 235 218 244 235 275 292 289 294 316 308 319 314 303 306 312 298 304 303 288 284 273 256 246 246 249 252 253 258 267 265
306 303 301 313 294 258 259 247 217 195 215 248 274 297 298 309 294 276 288 304 304 307 327 321 326 330 313 296 286 266 252 251 254 257 257 255 259 261
287 291 299 311 325 316 304 271 198 196 207 211 235 255 257 253 255 271 270 324 304 304 328 303 319 293 290 283 292 284 271 263 258 257 258 258 253 252
257 272 295 315 336 331 329 332 298 261 204 192 212 236 239 237 217 230 226 229 247 260 316 294 313 297 295 291 294 298 288 273 266 261 259 257 253 249
261 246 260 287 310 324 313 316 303 294 269 224 219 235 235 224 208 211 217 243 276 278 124 247 296 296 306 309 302 307 300 292 284 275 268 268 263 252
283 265 247 261 284 271 260 293 304 303 299 298 283 263 276 268 184 117 87 99 303 279 258 171 268 314 316 308 315 317 305 303 302 285 267 267 266 254
298 291 281 286 290 257 217 233 272 282 299 315 319 315 303 294 236 173 176 173 201 262 259 187 274 3 330 307 308 316 322 316 306 280 265 262 261 212
290 296 294 298 288 278 241 228 247 264 266 270 286 299 307 304 291 236 195 180 188 239 234 168 198 186 202 290 305 299 310 315 309 295 284 269 247 207
258 276 287 307 311 305 279 277 278 280 276 275 291 291 288 286 280 263 246 226 217 227 226 177 190 196 182 263 286 302 311 307 290 289 297 297 274 248
253 285 308 319 322 311 304 314 341 69 130 250 263 264 258 262 277 297 299 280 281 267 256 223 204 207 192 217 249 269 299 303 297 299 284 273 259 254
320 325 332 339 348 327 332 336 314 219 212 237 262 273 289 303 303 291 279 297 327 305 296 266 211 190 222 236 231 256 256 257 285 286 276 272 267 253
341 15 16 4 357 344 332 321 318 341 318 306 294 307 307 299 284 281 264 206 358 289 311 321 314 232 218 212 236 247 248 258 258 257 268 285 284 268
125 109 297 280 271 278 286 294 290 276 270 266 267 277 282 289 301 321 344 211 265 271 283 286 348 7 358 315 232 228 241 259 275 267 239 248 273 271
137 227 247 252 248 251 253 253 261 265 257 240 247 260 270 281 293 313 332 329 309 299 289 277 251 121 317 301 296 250 232 281 288 286 263 236 249 262
220 235 243 246 248 246 251 255 265 275 257 252 251 253 258 251 253 270 277 273 276 291 304 297 251 224 226 245 264 292 288 251 258 280 287 283 271 280
249 249 246 240 244 242 238 239 244 256 263 245 245 251 243 242 249 249 255 267 267 261 274 275 269 272 250 81 321 301 302 298 262 248 252 276 292 279
262 258 247 231 225 226 233 230 238 261 274 263 257 254 245 237 244 250 246 249 254 252 262 279 300 333 49 275 283 288 300 315 323 324 288 232 220 218
257 249 249 245 239 235 234 235 240 254 257 257 263 260 254 252 251 246 244 247 257 262 269 286 306 322 294 260 273 289 298 309 320 333 329 323 285 256
Height
1507 1506 1505 1504 1503 1503 1502 1501 1501 1499 1498 1497 1497 1496 1496 1495 1494 1492 1491 1490 1490 1489 1489 1488 1487 1486 1486 1485 1484 1484 1483 1483 1483 1482 1482 1482 1482 1483
1505 1504 1503 1502 1501 1500 1499 1498 1497 1497 1495 1495 1494 1494 1493 1492 1491 1490 1489 1488 1487 1487 1486 1485 1484 1483 1483 1482 1481 1481 1480 1480 1479 1479 1478 1478 1479 1479
1503 1502 1501 1500 1499 1498 1497 1496 1495 1494 1493 1492 1492 1491 1490 1489 1488 1487 1486 1485 1484 1484 1483 1482 1481 1480 1480 1479 1478 1477 1477 1477 1476 1476 1475 1475 1475 1475
1500 1500 1499 1498 1496 1496 1494 1493 1492 1492 1491 1489 1489 1488 1487 1486 1485 1484 1484 1483 1482 1481 1480 1479 1478 1478 1477 1476 1475 1474 1474 1474 1473 1473 1472 1472 1472 1472
1498 1497 1496 1495 1494 1493 1492 1491 1490 1490 1488 1487 1486 1485 1484 1483 1482 1482 1481 1480 1479 1478 1477 1476 1475 1475 1474 1473 1473 1472 1471 1471 1470 1470 1470 1469 1469 1469
1495 1494 1493 1492 1491 1490 1490 1489 1488 1487 1486 1485 1483 1482 1481 1481 1480 1479 1478 1477 1476 1475 1474 1473 1472 1472 1471 1471 1470 1469 1469 1468 1468 1468 1467 1467 1467 1467
1492 1491 1490 1489 1488 1487 1487 1486 1485 1484 1483 1482 1481 1479 1479 1478 1477 1476 1475 1474 1473 1472 1472 1471 1470 1469 1468 1468 1467 1467 1466 1466 1466 1465 1465 1464 1464 1464
1489 1488 1488 1487 1486 1485 1484 1484 1483 1482 1480 1479 1478 1477 1476 1475 1474 1473 1473 1472 1470 1470 1469 1468 1468 1467 1466 1465 1464 1464 1464 1463 1463 1463 1462 1462 1462 1462
1486 1485 1485 1484 1483 1482 1481 1481 1480 1479 1478 1477 1476 1474 1474 1473 1471 1470 1470 1470 1468 1468 1467 1465 1465 1464 1463 1462 1462 1462 1461 1461 1460 1460 1460 1460 1460 1460
1483 1482 1481 1480 1480 1479 1479 1478 1477 1477 1476 1474 1473 1472 1471 1470 1469 1469 1468 1467 1467 1466 1465 1463 1462 1461 1461 1460 1459 1459 1459 1458 1458 1458 1458 1458 1457 1457
1480 1479 1478 1477 1477 1476 1475 1475 1474 1474 1473 1472 1471 1470 1469 1468 1467 1466 1465 1464 1463 1463 1463 1461 1460 1459 1458 1457 1457 1457 1456 1456 1455 1455 1455 1455 1455 1454
1477 1476 1476 1475 1474 1473 1472 1471 1471 1470 1470 1469 1468 1468 1466 1465 1464 1464 1463 1462 1461 1460 1460 1459 1458 1457 1456 1455 1455 1454 1453 1453 1453 1453 1452 1452 1452 1452
1474 1473 1472 1472 1471 1470 1469 1469 1468 1468 1467 1466 1465 1465 1464 1463 1462 1461 1460 1460 1459 1458 1458 1457 1456 1455 1454 1453 1452 1452 1451 1450 1450 1450 1450 1450 1450 1449
1471 1471 1470 1469 1468 1467 1466 1466 1465 1465 1464 1463 1462 1461 1461 1460 1459 1458 1458 1457 1457 1457 1456 1455 1454 1453 1451 1450 1449 1449 1449 1448 1448 1448 1447 1447 1447 1446
1469 1469 1468 1467 1465 1465 1464 1463 1462 1461 1461 1460 1459 1458 1458 1457 1456 1456 1455 1454 1454 1453 1453 1452 1451 1450 1449 1448 1447 1446 1446 1446 1446 1445 1444 1444 1443 1443
1467 1466 1465 1464 1463 1462 1461 1460 1459 1459 1458 1457 1456 1456 1455 1454 1453 1452 1452 1451 1450 1450 1450 1449 1448 1448 1446 1446 1445 1444 1444 1443 1443 1442 1442 1441 1441 1440
1463 1462 1462 1461 1460 1459 1458 1457 1456 1456 1455 1454 1453 1452 1451 1451 1450 1450 1449 1448 1447 1446 1445 1445 1445 1444 1444 1443 1442 1441 1441 1440 1440 1439 1438 1437 1437 1437
1460 1459 1458 1458 1457 1456 1455 1454 1453 1452 1451 1451 1450 1449 1448 1447 1447 1446 1446 1445 1444 1443 1442 1442 1442 1441 1441 1440 1440 1438 1437 1437 1436 1436 1435 1434 1433 1433
1457 1456 1455 1454 1454 1453 1452 1451 1450 1449 1448 1448 1447 1446 1445 1445 1444 1443 1442 1442 1441 1440 1440 1439 1439 1438 1437 1436 1436 1436 1435 1433 1433 1432 1431 1431 1430 1429
1454 1453 1452 1452 1451 1450 1449 1448 1447 1446 1445 1444 1444 1443 1442 1442 1441 1440 1440 1439 1438 1437 1437 1437 1436 1436 1435 1434 1433 1432 1433 1431 1430 1428 1428 1427 1427 1427
1451 1450 1449 1448 1448 1447 1446 1445 1444 1442 1442 1441 1440 1440 1439 1439 1438 1437 1437 1436 1435 1435 1434 1434 1434 1434 1433 1432 1430 1429 1429 1428 1427 1426 1425 1424 1423 1422
1448 1447 1446 1445 1445 1444 1443 1441 1440 1439 1438 1438 1437 1437 1436 1436 1435 1434 1433 1433 1432 1432 1431 1431 1431 1430 1429 1428 1427 1426 1425 1425 1424 1423 1423 1422 1420 1420
1445 1444 1443 1442 1441 1440 1439 1438 1437 1436 1435 1434 1434 1433 1433 1432 1432 1431 1430 1429 1429 1428 1428 1427 1427 1427 1426 1425 1424 1423 1422 1421 1420 1419 1420 1420 1419 1419